| time (UTC) | temp F | wind direction | speed knots | gust knots | rain 1hr in | rain 24hr in | rain mn in | humidity % | barometer mb |
| 20260510190605 | 47 | 346 | 0.0 | 0.9 | 0.00 | 0.00 | 0.00 | 66 | 1016.1 |
| 20260510190105 | 48 | 46 | 0.0 | 2.6 | 0.00 | 0.00 | 0.00 | 65 | 1016.1 |
| 20260510184605 | 48 | 340 | 0.0 | 4.3 | 0.00 | 0.00 | 0.00 | 65 | 1016.2 |
| 20260510184105 | 49 | 353 | 0.9 | 2.6 | 0.00 | 0.00 | 0.00 | 65 | 1016.3 |
| 20260510183104 | 49 | 18 | 0.9 | 5.2 | 0.00 | 0.00 | 0.00 | 67 | 1016.1 |
| 20260510182605 | 49 | 6 | 0.0 | 2.6 | 0.00 | 0.00 | 0.00 | 67 | 1016.1 |
| 20260510182104 | 49 | 8 | 0.0 | 5.2 | 0.00 | 0.00 | 0.00 | 66 | 1016.1 |
| 20260510181604 | 49 | 346 | 0.9 | 4.3 | 0.00 | 0.00 | 0.00 | 65 | 1016.2 |
| 20260510181104 | 49 | 16 | 0.0 | 2.6 | 0.00 | 0.00 | 0.00 | 64 | 1016.2 |
| 20260510180605 | 49 | 22 | 0.0 | 4.3 | 0.00 | 0.00 | 0.00 | 63 | 1016.1 |
| 20260510174604 | 50 | 0 | 0.9 | 4.3 | 0.00 | 0.00 | 0.00 | 62 | 1016.3 |
| 20260510173604 | 50 | 331 | 0.9 | 2.6 | 0.00 | 0.00 | 0.00 | 64 | 1016.4 |
| 20260510173104 | 50 | 48 | 0.0 | 4.3 | 0.00 | 0.00 | 0.00 | 64 | 1016.4 |
| 20260510172604 | 50 | 47 | 0.0 | 2.6 | 0.00 | 0.00 | 0.00 | 64 | 1016.4 |
| 20260510171604 | 50 | 32 | 0.0 | 2.6 | 0.00 | 0.00 | 0.00 | 64 | 1016.6 |
| 20260510171105 | 51 | 22 | 0.0 | 2.6 | 0.00 | 0.00 | 0.00 | 63 | 1016.6 |
| 20260510170605 | 51 | 39 | 0.0 | 2.6 | 0.00 | 0.00 | 0.00 | 64 | 1016.6 |
| 20260510164605 | 52 | 52 | 1.7 | 5.2 | 0.00 | 0.00 | 0.00 | 65 | 1016.8 |
| 20260510163104 | 52 | 36 | 0.9 | 8.7 | 0.00 | 0.00 | 0.00 | 66 | 1016.9 |
| 20260510162105 | 51 | 41 | 0.9 | 10.4 | 0.00 | 0.00 | 0.00 | 65 | 1016.9 |
| 20260510161605 | 52 | 49 | 1.7 | 7.8 | 0.00 | 0.00 | 0.00 | 64 | 1017.1 |
| 20260510161104 | 52 | 47 | 0.9 | 7.8 | 0.00 | 0.00 | 0.00 | 64 | 1017.2 |
| 20260510153105 | 53 | 43 | 0.9 | 4.3 | 0.00 | 0.00 | 0.00 | 64 | 1017.8 |
| 20260510143604 | 55 | 33 | 0.9 | 8.7 | 0.00 | 0.00 | 0.00 | 60 | 1018.3 |
| 20260510143104 | 56 | 69 | 0.9 | 6.1 | 0.00 | 0.00 | 0.00 | 60 | 1018.4 |
| 20260510142105 | 56 | 45 | 0.9 | 4.3 | 0.00 | 0.00 | 0.00 | 60 | 1018.4 |
| 20260510135604 | 56 | 53 | 0.9 | 6.1 | 0.00 | 0.00 | 0.00 | 61 | 1018.6 |
| 20260510134604 | 55 | 86 | 0.9 | 4.3 | 0.00 | 0.00 | 0.00 | 62 | 1018.7 |
| 20260510133104 | 56 | 352 | 1.7 | 7.0 | 0.00 | 0.00 | 0.00 | 65 | 1018.7 |
| 20260510132605 | 55 | 49 | 0.9 | 8.7 | 0.00 | 0.00 | 0.00 | 66 | 1018.7 |
| 20260510131604 | 55 | 41 | 1.7 | 5.2 | 0.00 | 0.00 | 0.00 | 66 | 1018.8 |
| 20260510131104 | 55 | 26 | 0.9 | 8.7 | 0.00 | 0.00 | 0.00 | 66 | 1018.8 |
| 20260510130604 | 55 | 5 | 0.9 | 7.0 | 0.00 | 0.00 | 0.00 | 67 | 1018.9 |
| 20260510130104 | 54 | 47 | 1.7 | 7.0 | 0.00 | 0.00 | 0.00 | 68 | 1018.7 |
| 20260510125104 | 54 | 34 | 0.9 | 4.3 | 0.00 | 0.00 | 0.00 | 68 | 1018.9 |
| 20260510124604 | 54 | 22 | 0.9 | 7.8 | 0.00 | 0.00 | 0.00 | 69 | 1019.0 |
| 20260510124104 | 53 | 50 | 0.0 | 4.3 | 0.00 | 0.00 | 0.00 | 70 | 1019.1 |
| 20260510122604 | 54 | 39 | 0.9 | 7.0 | 0.00 | 0.00 | 0.00 | 69 | 1019.3 |
| 20260510122104 | 54 | 51 | 0.9 | 6.1 | 0.00 | 0.00 | 0.00 | 68 | 1019.3 |
| 20260510121604 | 54 | 58 | 1.7 | 7.0 | 0.00 | 0.00 | 0.00 | 70 | 1019.3 |
| 20260510115605 | 54 | 31 | 0.9 | 8.7 | 0.00 | 0.00 | 0.00 | 70 | 1019.5 |
| 20260510114104 | 55 | 27 | 0.9 | 6.1 | 0.00 | 0.00 | 0.00 | 70 | 1019.5 |
| 20260510113605 | 54 | 68 | 1.7 | 7.8 | 0.00 | 0.00 | 0.00 | 71 | 1019.5 |
| 20260510112604 | 54 | 39 | 0.9 | 5.2 | 0.00 | 0.00 | 0.00 | 70 | 1019.6 |
| 20260510112105 | 55 | 16 | 1.7 | 6.1 | 0.00 | 0.00 | 0.00 | 68 | 1019.7 |
| 20260510105604 | 53 | 52 | 0.9 | 8.7 | 0.00 | 0.00 | 0.00 | 74 | 1019.8 |
| 20260510104604 | 53 | 45 | 1.7 | 6.1 | 0.00 | 0.00 | 0.00 | 74 | 1019.8 |
| 20260510104104 | 53 | 22 | 0.9 | 6.1 | 0.00 | 0.00 | 0.00 | 74 | 1019.9 |
| 20260510103604 | 53 | 0 | 0.0 | 5.2 | 0.00 | 0.00 | 0.00 | 72 | 1019.9 |
| 20260510102104 | 54 | 358 | 0.9 | 4.3 | 0.00 | 0.00 | 0.00 | 74 | 1019.9 |
| 20260510095604 | 52 | 72 | 0.0 | 7.0 | 0.00 | 0.00 | 0.00 | 76 | 1020.0 |
| 20260510092604 | 52 | 9 | 1.7 | 8.7 | 0.00 | 0.00 | 0.00 | 77 | 1020.0 |
| 20260510090105 | 52 | 36 | 0.0 | 5.2 | 0.00 | 0.00 | 0.00 | 79 | 1020.3 |
| 20260510085604 | 51 | 24 | 0.9 | 6.1 | 0.00 | 0.00 | 0.00 | 79 | 1020.3 |
| 20260510084604 | 51 | 359 | 0.9 | 4.3 | 0.00 | 0.00 | 0.00 | 80 | 1020.3 |
| 20260510083104 | 50 | 9 | 0.9 | 4.3 | 0.00 | 0.00 | 0.00 | 82 | 1020.3 |
| 20260510082104 | 50 | 78 | 1.7 | 7.0 | 0.00 | 0.00 | 0.00 | 82 | 1020.3 |
| 20260510081605 | 50 | 47 | 0.9 | 5.2 | 0.00 | 0.00 | 0.00 | 82 | 1020.3 |
| 20260510081104 | 50 | 38 | 0.9 | 6.1 | 0.00 | 0.00 | 0.00 | 82 | 1020.3 |
| 20260510080104 | 51 | 45 | 1.7 | 7.0 | 0.00 | 0.00 | 0.00 | 82 | 1020.4 |
| 20260510075605 | 51 | 67 | 1.7 | 5.2 | 0.00 | 0.00 | 0.00 | 82 | 1020.3 |
| 20260510075104 | 51 | 60 | 0.9 | 5.2 | 0.00 | 0.00 | 0.00 | 82 | 1020.3 |
| 20260510074604 | 51 | 31 | 0.9 | 4.3 | 0.00 | 0.00 | 0.00 | 82 | 1020.2 |
| 20260510072106 | 51 | 17 | 0.9 | 6.1 | 0.00 | 0.00 | 0.00 | 83 | 1020.2 |
| 20260510071105 | 51 | 25 | 1.7 | 7.0 | 0.00 | 0.00 | 0.00 | 82 | 1020.1 |
| 20260510065105 | 51 | 359 | 0.9 | 5.2 | 0.00 | 0.00 | 0.00 | 82 | 1019.9 |
| 20260510064104 | 51 | 351 | 0.0 | 4.3 | 0.00 | 0.00 | 0.00 | 82 | 1019.9 |
| 20260510063604 | 51 | 46 | 0.9 | 4.3 | 0.00 | 0.00 | 0.00 | 82 | 1019.8 |
| 20260510061605 | 51 | 47 | 0.9 | 5.2 | 0.00 | 0.00 | 0.00 | 84 | 1019.6 |
| 20260510061104 | 51 | 66 | 0.9 | 4.3 | 0.00 | 0.00 | 0.00 | 85 | 1019.4 |
| 20260510055604 | 50 | 60 | 0.9 | 5.2 | 0.00 | 0.00 | 0.00 | 87 | 1019.4 |
| 20260510054104 | 50 | 357 | 0.0 | 4.3 | 0.00 | 0.00 | 0.00 | 89 | 1019.3 |
| 20260510053604 | 49 | 353 | 0.0 | 1.7 | 0.00 | 0.00 | 0.00 | 89 | 1019.3 |
| 20260510052105 | 49 | 33 | 0.0 | 2.6 | 0.00 | 0.00 | 0.00 | 90 | 1019.3 |
| 20260510051604 | 49 | 32 | 0.9 | 5.2 | 0.00 | 0.00 | 0.00 | 90 | 1019.3 |
| 20260510050604 | 49 | 25 | 0.0 | 2.6 | 0.00 | 0.00 | 0.00 | 90 | 1019.3 |
| 20260510050104 | 49 | 15 | 0.0 | 2.6 | 0.00 | 0.00 | 0.00 | 90 | 1019.3 |
| 20260510045605 | 48 | 47 | 0.0 | 2.6 | 0.00 | 0.00 | 0.00 | 90 | 1019.5 |
| 20260510044604 | 48 | 14 | 0.0 | 0.0 | 0.00 | 0.00 | 0.00 | 90 | 1019.6 |
| 20260510043604 | 48 | 14 | 0.0 | 0.9 | 0.00 | 0.00 | 0.00 | 90 | 1019.6 |
| 20260510041604 | 47 | 4 | 0.0 | 0.0 | 0.00 | 0.00 | 0.00 | 90 | 1019.7 |
| 20260510041104 | 47 | 4 | 0.0 | 0.0 | 0.00 | 0.00 | 0.00 | 89 | 1019.7 |
| 20260510034604 | 47 | 4 | 0.0 | 0.0 | 0.00 | 0.00 | 0.00 | 89 | 1019.8 |
| 20260510034104 | 47 | 4 | 0.0 | 0.0 | 0.00 | 0.00 | 0.00 | 89 | 1019.8 |
| 20260510032104 | 47 | 4 | 0.0 | 1.7 | 0.00 | 0.00 | 0.00 | 89 | 1019.9 |
| 20260510030604 | 47 | 3 | 0.0 | 0.9 | 0.00 | 0.00 | 0.00 | 89 | 1020.0 |
| 20260510030104 | 47 | 3 | 0.0 | 0.9 | 0.00 | 0.00 | 0.00 | 89 | 1020.0 |
| 20260510025104 | 47 | 3 | 0.0 | 0.0 | 0.00 | 0.00 | 0.00 | 88 | 1020.1 |
| 20260510024604 | 47 | 3 | 0.0 | 0.0 | 0.00 | 0.00 | 0.00 | 88 | 1020.1 |
| 20260510022605 | 48 | 4 | 0.0 | 0.9 | 0.00 | 0.00 | 0.00 | 88 | 1020.1 |
| 20260510021604 | 48 | 4 | 0.0 | 0.9 | 0.00 | 0.00 | 0.00 | 88 | 1020.1 |
| 20260510020604 | 48 | 4 | 0.0 | 0.9 | 0.00 | 0.00 | 0.00 | 87 | 1020.2 |
| 20260510015604 | 49 | 4 | 0.0 | 0.9 | 0.00 | 0.00 | 0.00 | 87 | 1020.2 |
| 20260510014604 | 49 | 4 | 0.0 | 0.9 | 0.00 | 0.00 | 0.00 | 87 | 1020.2 |
| 20260510013604 | 49 | 4 | 0.0 | 0.9 | 0.00 | 0.00 | 0.00 | 87 | 1020.3 |
| 20260510012104 | 50 | 4 | 0.0 | 0.9 | 0.00 | 0.00 | 0.00 | 87 | 1020.1 |
| 20260510011605 | 50 | 4 | 0.0 | 0.9 | 0.00 | 0.00 | 0.00 | 87 | 1020.1 |
| 20260510010604 | 50 | 4 | 0.0 | 0.0 | 0.00 | 0.00 | 0.00 | 87 | 1020.1 |
| 20260510010104 | 50 | 4 | 0.0 | 0.9 | 0.00 | 0.00 | 0.00 | 86 | 1020.0 |
| 20260510005105 | 50 | 36 | 0.0 | 0.9 | 0.00 | 0.00 | 0.00 | 86 | 1020.0 |
| 20260510004604 | 50 | 42 | 0.0 | 0.0 | 0.00 | 0.00 | 0.00 | 86 | 1020.1 |
| 20260510004105 | 50 | 42 | 0.0 | 1.7 | 0.00 | 0.00 | 0.00 | 86 | 1020.1 |
| 20260510001604 | 51 | 17 | 0.0 | 2.6 | 0.00 | 0.00 | 0.00 | 86 | 1020.3 |
| 20260510001104 | 52 | 348 | 0.9 | 4.3 | 0.00 | 0.00 | 0.00 | 86 | 1020.4 |
| 20260509235604 | 52 | 355 | 0.0 | 0.9 | 0.00 | 0.00 | 0.00 | 86 | 1020.6 |
| 20260509235104 | 52 | 5 | 0.0 | 1.7 | 0.00 | 0.00 | 0.00 | 87 | 1020.7 |
| 20260509234104 | 52 | 4 | 0.0 | 1.7 | 0.00 | 0.00 | 0.00 | 87 | 1020.6 |
| 20260509233105 | 52 | 20 | 0.0 | 0.9 | 0.00 | 0.00 | 0.00 | 87 | 1020.6 |
| 20260509231604 | 52 | 52 | 0.0 | 1.7 | 0.00 | 0.00 | 0.00 | 87 | 1020.5 |
| 20260509230605 | 52 | 353 | 0.0 | 2.6 | 0.00 | 0.00 | 0.00 | 87 | 1020.5 |
| 20260509224604 | 52 | 37 | 0.0 | 0.9 | 0.00 | 0.00 | 0.00 | 88 | 1020.4 |
| 20260509223605 | 52 | 299 | 0.0 | 1.7 | 0.00 | 0.00 | 0.00 | 88 | 1020.4 |
| 20260509223104 | 52 | 336 | 0.0 | 7.8 | 0.00 | 0.00 | 0.00 | 88 | 1020.4 |
| 20260509222104 | 52 | 13 | 0.0 | 0.9 | 0.00 | 0.00 | 0.00 | 88 | 1020.3 |
| 20260509221605 | 52 | 13 | 0.0 | 0.9 | 0.00 | 0.00 | 0.00 | 88 | 1020.3 |
| 20260509220604 | 52 | 13 | 0.0 | 0.9 | 0.00 | 0.00 | 0.00 | 88 | 1020.3 |
| 20260509220105 | 52 | 12 | 0.0 | 0.9 | 0.00 | 0.00 | 0.00 | 88 | 1020.3 |
| 20260509215605 | 52 | 12 | 0.0 | 0.9 | 0.00 | 0.00 | 0.00 | 88 | 1020.2 |
| 20260509215104 | 52 | 12 | 0.0 | 2.6 | 0.00 | 0.00 | 0.00 | 88 | 1020.1 |
| 20260509214605 | 52 | 12 | 0.0 | 2.6 | 0.00 | 0.00 | 0.00 | 88 | 1020.2 |
| 20260509212104 | 52 | 14 | 0.0 | 0.9 | 0.00 | 0.00 | 0.00 | 87 | 1020.1 |
| 20260509211604 | 52 | 14 | 0.0 | 0.9 | 0.00 | 0.00 | 0.00 | 87 | 1020.1 |
| 20260509211104 | 52 | 14 | 0.0 | 0.0 | 0.00 | 0.00 | 0.00 | 87 | 1020.3 |
| 20260509205605 | 52 | 12 | 0.0 | 0.9 | 0.00 | 0.00 | 0.00 | 86 | 1020.3 |
| 20260509205104 | 52 | 11 | 0.0 | 0.9 | 0.00 | 0.00 | 0.00 | 86 | 1020.3 |
| 20260509204105 | 53 | 31 | 0.0 | 0.9 | 0.00 | 0.00 | 0.00 | 86 | 1020.2 |
| 20260509203104 | 53 | 8 | 0.0 | 0.9 | 0.00 | 0.00 | 0.00 | 86 | 1020.2 |
| 20260509202104 | 53 | 10 | 0.0 | 0.9 | 0.00 | 0.00 | 0.00 | 85 | 1020.2 |
| 20260509201605 | 53 | 26 | 0.0 | 2.6 | 0.00 | 0.00 | 0.00 | 84 | 1020.2 |
| 20260509201104 | 53 | 46 | 0.0 | 0.0 | 0.00 | 0.00 | 0.00 | 84 | 1020.1 |
| 20260509200604 | 53 | 46 | 0.0 | 0.9 | 0.00 | 0.00 | 0.00 | 84 | 1020.2 |
| 20260509194604 | 54 | 62 | 0.0 | 1.7 | 0.00 | 0.00 | 0.00 | 82 | 1019.8 |
| 20260509193104 | 55 | 47 | 0.0 | 2.6 | 0.00 | 0.00 | 0.00 | 80 | 1019.6 |
| 20260509191604 | 56 | 271 | 0.0 | 1.7 | 0.00 | 0.00 | 0.00 | 78 | 1019.3 |